Location: Unspecified
(0.0000°N, 0.0000°E)
Time: 20:48:29
(UTC+00:00)

N. Korean satellite - Pass Details

Date: 21 March 2023
Orbit: 390 x 416 km, 97.3° (Epoch: 29 March)

Event Time Altitude Azimuth Distance (km) Brightness Sun altitude
Rises 04:43:39 0° 24° (NNE) 2,294 10.3 -20.9°
Reaches altitude 10° 04:45:44 10° 34° (NE) 1,434 9.4 -20.4°
Maximum altitude 04:48:32 34° 101° (E) 674 7.9 -19.7°
Drops below altitude 10° 04:51:21 10° 168° (SSE) 1,430 9.1 -19.0°
Sets 04:53:24 0° 177° (S) 2,285 10.0 -18.5°
